EW5069 Weather Reports


Display with metric or nautical units.
time (UTC)temp
F
wind
direction
speed
MPH
gust
MPH
rain 1hr
in
rain 24hr
in
rain mn
in
humidity
%
barometer
mb
20260507163026 53 360 0.0 0.0 0.00 0.00 0.00 61 1016.1
20260507161534 52 254 0.0 0.0 0.00 0.00 0.00 58 1016.3
20260507160022 52 360 0.0 0.0 0.00 0.00 0.00 58 1016.3
20260507154519 51 360 0.0 0.0 0.00 0.00 0.00 60 1016.4
20260507153014 51 360 0.0 0.0 0.00 0.00 0.00 59 1016.4
20260507151519 50 360 0.0 0.0 0.00 0.00 0.00 57 1016.2
20260507150011 50 360 0.0 0.0 0.00 0.00 0.00 59 1016.2
20260507144503 49 360 0.0 0.0 0.00 0.00 0.00 62 1016.2
20260507143105 49 360 0.0 0.0 0.00 0.00 0.00 62 1016.2
20260507141558 49 360 0.0 0.0 0.00 0.00 0.00 64 1016.2
20260507140053 48 360 0.0 0.0 0.00 0.00 0.00 67 1016.2
20260507134555 47 360 0.0 0.0 0.00 0.00 0.00 64 1016.3
20260507133045 46 360 0.0 0.0 0.00 0.00 0.00 72 1016.3
20260507131541 45 360 0.0 0.0 0.00 0.00 0.00 74 1016.3
20260507130036 45 360 0.0 0.0 0.00 0.00 0.00 73 1016.2
20260507124533 44 360 0.0 0.0 0.00 0.00 0.00 76 1016.1
20260507123028 42 360 0.0 0.0 0.00 0.00 0.00 80 1016.0
20260507121525 40 290 0.0 0.0 0.00 0.00 0.00 85 1015.9
20260507120023 39 360 0.0 0.0 0.00 0.00 0.00 86 1016.2
20260507114526 38 360 0.0 0.0 0.00 0.00 0.00 86 1016.1
20260507113018 38 360 0.0 0.0 0.00 0.00 0.00 86 1016.0
20260507111520 38 360 0.0 0.0 0.00 0.00 0.00 85 1015.8
20260507110013 38 360 0.0 0.0 0.00 0.00 0.00 85 1015.7
20260507104509 38 360 0.0 0.0 0.00 0.00 0.00 85 1015.6
20260507103008 38 219 0.0 0.0 0.00 0.00 0.00 85 1015.6
20260507101516 37 360 0.0 0.0 0.00 0.00 0.00 85 1015.6
20260507100006 37 360 0.0 0.0 0.00 0.00 0.00 84 1015.6
20260507094504 37 360 0.0 0.0 0.00 0.00 0.00 83 1015.6
20260507093004 38 360 0.0 0.0 0.00 0.00 0.00 82 1015.6
20260507091503 38 360 0.0 0.0 0.00 0.00 0.00 81 1015.4
20260507090005 38 360 0.0 0.0 0.00 0.00 0.00 82 1015.5
20260507084502 38 360 0.0 0.0 0.00 0.00 0.00 83 1015.4
20260507083003 37 360 0.0 0.0 0.00 0.00 0.00 83 1015.3
20260507081604 37 360 0.0 0.0 0.00 0.00 0.00 83 1015.4
20260507080058 38 360 0.0 0.0 0.00 0.00 0.00 80 1015.4
20260507074559 39 360 0.0 0.0 0.00 0.00 0.00 80 1015.4
20260507073100 39 360 0.0 0.0 0.00 0.00 0.00 79 1015.4
20260507071600 38 360 0.0 0.0 0.00 0.00 0.00 82 1015.4
20260507070103 38 360 0.0 0.0 0.00 0.00 0.00 82 1015.5
20260507064552 39 360 0.0 0.0 0.00 0.00 0.00 80 1015.5
20260507063051 40 360 0.0 0.0 0.00 0.00 0.00 80 1015.6
20260507061548 41 360 0.0 0.0 0.00 0.00 0.00 80 1015.7
20260507054547 41 360 0.0 0.0 0.00 0.03 0.00 79 1015.7
20260507053050 42 255 0.0 0.0 0.00 0.03 0.00 79 1015.7
20260507051543 42 360 0.0 0.0 0.00 0.03 0.00 77 1015.7
20260507050043 43 360 0.0 0.0 0.00 0.03 0.00 77 1015.6
20260507044539 43 360 0.0 0.0 0.00 0.05 0.00 78 1015.6
20260507043038 42 253 0.0 0.0 0.00 0.05 0.00 80 1015.5
20260507041538 42 360 0.0 0.0 0.00 0.05 0.00 79 1015.4
20260507040034 42 360 0.0 0.0 0.00 0.05 0.00 80 1015.4
20260507034550 42 360 0.0 0.0 0.00 0.08 0.05 80 1015.4
20260507033032 44 360 0.0 0.0 0.00 0.08 0.05 77 1015.2
20260507031528 44 360 0.0 0.0 0.00 0.08 0.05 79 1015.2
20260507030026 44 360 0.0 0.0 0.00 0.08 0.05 79 1015.1
20260507024544 43 360 0.0 0.0 0.00 0.12 0.05 80 1015.1
20260507023024 44 254 0.0 0.0 0.00 0.12 0.05 80 1014.9
20260507021523 45 254 0.0 0.0 0.00 0.12 0.05 79 1014.8
20260507020024 46 254 0.0 0.0 0.00 0.12 0.05 76 1014.8
20260507014534 47 255 0.0 0.0 0.00 0.13 0.05 75 1014.8
20260507013021 48 256 0.0 0.0 0.00 0.13 0.05 73 1014.8
20260507011534 48 360 0.0 0.0 0.00 0.13 0.05 72 1014.7
20260507010020 49 360 0.0 0.0 0.00 0.13 0.05 70 1014.5
20260507004519 50 256 0.0 0.0 0.00 0.15 0.05 68 1014.4
20260507003019 52 281 0.0 0.0 0.00 0.15 0.05 65 1014.1
20260507001518 53 360 0.0 0.0 0.00 0.15 0.05 63 1013.8
20260507000017 53 360 0.0 0.0 0.00 0.15 0.05 62 1013.6
20260506234516 52 246 0.0 0.0 0.00 0.19 0.05 61 1013.8
20260506233016 53 360 0.0 0.0 0.00 0.19 0.05 58 1013.9
20260506231516 53 360 0.0 0.0 0.00 0.19 0.05 59 1014.0
20260506230016 54 360 0.0 0.0 0.00 0.20 0.05 57 1013.9
20260506224516 54 360 0.0 0.0 0.00 0.20 0.05 61 1014.0
20260506223013 54 360 0.0 0.0 0.00 0.20 0.05 57 1014.0
20260506221514 54 360 0.0 0.0 0.00 0.20 0.05 58 1013.9
20260506220012 54 360 0.0 0.0 0.00 0.23 0.05 60 1013.9
20260506214517 54 238 0.0 0.0 0.00 0.23 0.05 62 1013.7
20260506213011 54 360 0.0 0.0 0.00 0.23 0.05 61 1013.7
20260506211510 54 360 0.0 0.0 0.00 0.23 0.05 59 1013.8
20260506210012 56 360 0.0 0.0 0.00 0.26 0.05 65 1013.6
20260506204509 55 292 0.0 0.0 0.00 0.26 0.05 56 1013.8
20260506203011 55 360 0.0 0.0 0.00 0.26 0.05 64 1014.1
20260506201504 55 360 0.0 0.0 0.00 0.26 0.05 64 1014.1
20260506200003 54 360 0.0 0.0 0.00 0.27 0.05 61 1014.0
20260506194603 54 360 0.0 0.0 0.00 0.27 0.05 62 1014.0
20260506193059 53 219 0.0 0.0 0.00 0.27 0.05 63 1014.2
20260506191559 53 360 0.0 0.0 0.00 0.27 0.05 63 1014.3
20260506190059 53 360 0.0 0.0 0.00 0.27 0.05 63 1014.2
20260506184557 53 360 0.0 0.0 0.00 0.30 0.05 64 1014.2
20260506183057 53 360 0.0 0.0 0.00 0.30 0.05 69 1014.2
20260506181553 53 269 0.0 0.0 0.00 0.30 0.05 66 1014.2
20260506180053 53 360 0.0 0.0 0.00 0.30 0.05 68 1014.3
20260506174559 52 360 0.0 0.0 0.00 0.40 0.05 64 1014.5
20260506173111 53 223 0.0 0.0 0.00 0.40 0.05 64 1014.3
20260506171551 53 347 0.0 0.0 0.00 0.40 0.05 65 1014.2
20260506170050 53 360 0.0 0.0 0.00 0.40 0.05 66 1014.1
20260506164549 54 239 0.0 0.0 0.00 0.43 0.05 65 1014.1